カタログに戻る

STARLINK-31975

運用中通信VLEO
NORAD 59886·PAYLOAD·🇺🇸 United States

打ち上げ May 28, 2024 から Cape Canaveral Space Force Station

Loading…

次のパス (今後24時間)

TLE

最新Source: CelesTrak SupGP

元期: Sep 14, 2026, 14:15 UTC

1 59886C 24100B   26257.59423611  .00037644  00000+0  13639-2 0  2570
2 59886  42.9994 138.5997 0001455 262.5840 217.9247 15.27548281    15

AllMySatでSTARLINK-31975をリアルタイム追跡

Download on the App Store